| time (UTC) | temp C | wind direction | speed KPH | gust KPH | rain 1hr cm | rain 24hr cm | rain mn cm | humidity % | barometer mb |
| 20260507090043 | 9 | 185 | 0.0 | 0.0 | 0.00 | 0.43 | 0.00 | 92 | 1012.8 |
| 20260507084543 | 9 | 185 | 0.0 | 0.0 | 0.00 | 0.43 | 0.00 | 92 | 1012.5 |
| 20260507083041 | 9 | 185 | 0.0 | 0.0 | 0.00 | 0.43 | 0.00 | 92 | 1012.5 |
| 20260507081547 | 9 | 185 | 0.0 | 0.0 | 0.00 | 0.43 | 0.00 | 92 | 1012.7 |
| 20260507080008 | 10 | 185 | 0.0 | 0.0 | 0.00 | 0.79 | 0.00 | 91 | 1012.5 |
| 20260507074515 | 10 | 185 | 0.0 | 0.0 | 0.00 | 0.79 | 0.00 | 92 | 1012.8 |
| 20260507073004 | 10 | 185 | 0.0 | 0.0 | 0.00 | 0.79 | 0.00 | 91 | 1012.6 |
| 20260507071504 | 10 | 185 | 0.0 | 0.0 | 0.00 | 0.79 | 0.00 | 91 | 1012.7 |
| 20260507070004 | 10 | 185 | 0.0 | 0.0 | 0.00 | 0.89 | 0.00 | 91 | 1012.5 |
| 20260507064501 | 10 | 184 | 0.0 | 0.0 | 0.00 | 0.89 | 0.00 | 91 | 1012.9 |
| 20260507063100 | 10 | 184 | 0.0 | 0.0 | 0.00 | 0.89 | 0.00 | 91 | 1012.8 |
| 20260507061556 | 10 | 184 | 0.0 | 0.0 | 0.00 | 0.89 | 0.00 | 91 | 1012.7 |
| 20260507060055 | 10 | 184 | 0.0 | 0.0 | 0.00 | 0.94 | 0.00 | 91 | 1012.8 |
| 20260507054635 | 11 | 184 | 0.0 | 0.0 | 0.00 | 0.94 | 0.00 | 90 | 1012.9 |
| 20260507053053 | 11 | 184 | 0.0 | 0.0 | 0.00 | 0.94 | 0.00 | 88 | 1013.0 |
| 20260507051547 | 11 | 184 | 0.0 | 0.0 | 0.00 | 0.94 | 0.00 | 86 | 1013.0 |
| 20260507050050 | 11 | 184 | 0.0 | 0.0 | 0.00 | 0.94 | 0.00 | 87 | 1012.9 |
| 20260507044548 | 12 | 184 | 0.0 | 0.0 | 0.00 | 0.94 | 0.00 | 86 | 1013.1 |
| 20260507043045 | 12 | 184 | 0.0 | 0.0 | 0.00 | 0.94 | 0.00 | 84 | 1013.2 |
| 20260507041509 | 12 | 184 | 0.0 | 0.0 | 0.00 | 0.94 | 0.00 | 82 | 1013.1 |
| 20260507040007 | 12 | 184 | 0.0 | 6.4 | 0.00 | 0.94 | 0.94 | 82 | 1012.8 |
| 20260507034505 | 12 | 185 | 0.0 | 11.3 | 0.00 | 0.94 | 0.94 | 85 | 1012.5 |
| 20260507033006 | 12 | 146 | 3.2 | 9.7 | 0.00 | 0.94 | 0.94 | 92 | 1012.6 |
| 20260507031503 | 12 | 314 | 0.0 | 0.0 | 0.00 | 0.94 | 0.94 | 95 | 1012.4 |
| 20260507030005 | 12 | 315 | 0.0 | 0.0 | 0.00 | 0.94 | 0.94 | 96 | 1012.5 |
| 20260507024600 | 12 | 314 | 0.0 | 0.0 | 0.00 | 0.94 | 0.94 | 95 | 1012.5 |
| 20260507023106 | 12 | 315 | 0.0 | 0.0 | 0.00 | 0.94 | 0.94 | 95 | 1012.6 |
| 20260507021602 | 12 | 315 | 0.0 | 0.0 | 0.00 | 0.94 | 0.94 | 95 | 1012.8 |
| 20260507020100 | 12 | 315 | 0.0 | 0.0 | 0.00 | 0.94 | 0.94 | 95 | 1012.8 |
| 20260507014602 | 13 | 314 | 0.0 | 0.0 | 0.00 | 0.94 | 0.94 | 94 | 1011.6 |
| 20260507013053 | 13 | 313 | 0.0 | 0.0 | 0.00 | 0.94 | 0.94 | 94 | 1012.3 |
| 20260507011552 | 13 | 313 | 0.0 | 0.0 | 0.00 | 0.94 | 0.94 | 94 | 1011.3 |
| 20260507010051 | 13 | 309 | 0.0 | 0.0 | 0.00 | 0.94 | 0.94 | 94 | 1011.6 |
| 20260507004523 | 13 | 308 | 0.0 | 0.0 | 0.00 | 0.94 | 0.94 | 94 | 1010.6 |
| 20260507003021 | 13 | 308 | 0.0 | 3.2 | 0.00 | 0.94 | 0.94 | 93 | 1011.1 |
| 20260507001524 | 13 | 308 | 0.0 | 9.7 | 0.00 | 0.94 | 0.94 | 93 | 1011.2 |
| 20260507000022 | 13 | 344 | 0.0 | 8.0 | 0.00 | 0.94 | 0.94 | 93 | 1010.6 |
| 20260506234515 | 13 | 345 | 0.0 | 3.2 | 0.00 | 0.94 | 0.94 | 92 | 1011.5 |
| 20260506233015 | 13 | 345 | 0.0 | 8.0 | 0.00 | 0.94 | 0.94 | 92 | 1010.9 |
| 20260506231545 | 13 | 355 | 1.6 | 8.0 | 0.00 | 0.94 | 0.94 | 92 | 1010.4 |
| 20260506230045 | 13 | 19 | 1.6 | 6.4 | 0.00 | 0.94 | 0.94 | 91 | 1010.6 |
| 20260506224541 | 13 | 20 | 0.0 | 3.2 | 0.00 | 0.94 | 0.94 | 90 | 1010.9 |
| 20260506223039 | 13 | 20 | 1.6 | 3.2 | 0.00 | 0.94 | 0.94 | 90 | 1011.2 |
| 20260506221538 | 13 | 19 | 3.2 | 8.0 | 0.00 | 0.94 | 0.94 | 89 | 1010.8 |
| 20260506220036 | 14 | 45 | 0.0 | 8.0 | 0.00 | 0.94 | 0.94 | 90 | 1010.7 |
| 20260506214606 | 14 | 40 | 4.8 | 8.0 | 0.00 | 0.94 | 0.94 | 89 | 1010.7 |
| 20260506213005 | 14 | 46 | 1.6 | 8.0 | 0.00 | 0.94 | 0.94 | 88 | 1010.4 |
| 20260506211507 | 14 | 47 | 1.6 | 9.7 | 0.00 | 0.94 | 0.94 | 88 | 1010.2 |
| 20260506210007 | 14 | 36 | 4.8 | 11.3 | 0.00 | 0.94 | 0.94 | 88 | 1010.5 |
| 20260506204502 | 14 | 325 | 0.0 | 8.0 | 0.00 | 0.94 | 0.94 | 88 | 1010.6 |
| 20260506203003 | 14 | 300 | 0.0 | 6.4 | 0.00 | 0.94 | 0.94 | 88 | 1010.5 |
| 20260506201559 | 13 | 300 | 3.2 | 8.0 | 0.00 | 0.94 | 0.94 | 88 | 1010.5 |
| 20260506200059 | 13 | 161 | 0.0 | 0.0 | 0.00 | 0.94 | 0.94 | 89 | 1010.6 |
| 20260506194628 | 13 | 161 | 0.0 | 0.0 | 0.00 | 0.94 | 0.94 | 89 | 1010.4 |
| 20260506193104 | 13 | 161 | 0.0 | 0.0 | 0.00 | 0.94 | 0.94 | 90 | 1010.5 |
| 20260506191554 | 13 | 128 | 0.0 | 0.0 | 0.00 | 0.94 | 0.94 | 91 | 1010.1 |
| 20260506190057 | 12 | 140 | 4.8 | 9.7 | 0.00 | 0.94 | 0.94 | 93 | 1010.4 |
| 20260506184553 | 12 | 153 | 4.8 | 11.3 | 0.00 | 0.94 | 0.94 | 93 | 1010.3 |
| 20260506183053 | 12 | 180 | 1.6 | 12.9 | 0.00 | 0.94 | 0.94 | 95 | 1010.1 |
| 20260506181550 | 12 | 132 | 3.2 | 12.9 | 0.00 | 0.94 | 0.94 | 95 | 1010.2 |
| 20260506180101 | 12 | 111 | 1.6 | 9.7 | 0.00 | 0.94 | 0.94 | 96 | 1010.0 |
| 20260506174552 | 12 | 151 | 3.2 | 11.3 | 0.00 | 0.94 | 0.94 | 95 | 1009.9 |
| 20260506173053 | 12 | 169 | 6.4 | 14.5 | 0.00 | 0.94 | 0.94 | 95 | 1010.2 |
| 20260506171549 | 12 | 165 | 4.8 | 9.7 | 0.00 | 0.94 | 0.94 | 95 | 1010.3 |
| 20260506170057 | 12 | 161 | 0.0 | 4.8 | 0.00 | 0.94 | 0.94 | 96 | 1010.1 |
| 20260506164542 | 12 | 141 | 1.6 | 9.7 | 0.00 | 0.94 | 0.94 | 95 | 1010.0 |
| 20260506163101 | 12 | 140 | 0.0 | 8.0 | 0.00 | 0.94 | 0.94 | 96 | 1009.9 |
| 20260506161541 | 12 | 156 | 0.0 | 14.5 | 0.00 | 0.94 | 0.94 | 95 | 1009.9 |
| 20260506160034 | 12 | 142 | 6.4 | 14.5 | 0.00 | 0.94 | 0.94 | 95 | 1009.7 |
| 20260506154530 | 12 | 113 | 0.0 | 14.5 | 0.00 | 0.94 | 0.94 | 96 | 1009.5 |
| 20260506153028 | 12 | 170 | 6.4 | 14.5 | 0.03 | 0.94 | 0.94 | 95 | 1009.1 |
| 20260506151526 | 12 | 175 | 6.4 | 11.3 | 0.03 | 0.94 | 0.94 | 95 | 1009.1 |
| 20260506150026 | 13 | 174 | 4.8 | 16.1 | 0.03 | 0.94 | 0.94 | 96 | 1008.7 |
| 20260506144520 | 14 | 159 | 12.9 | 20.9 | 0.05 | 0.94 | 0.94 | 95 | 1008.4 |
| 20260506143016 | 15 | 108 | 3.2 | 9.7 | 0.03 | 0.91 | 0.91 | 97 | 1007.8 |
| 20260506141514 | 15 | 96 | 6.4 | 12.9 | 0.03 | 0.91 | 0.91 | 97 | 1007.8 |
| 20260506140013 | 15 | 67 | 8.0 | 12.9 | 0.03 | 0.91 | 0.91 | 97 | 1007.6 |
| 20260506134510 | 15 | 65 | 6.4 | 12.9 | 0.00 | 0.89 | 0.89 | 97 | 1007.6 |
| 20260506133007 | 15 | 65 | 1.6 | 9.7 | 0.00 | 0.89 | 0.89 | 97 | 1007.2 |
| 20260506131508 | 15 | 92 | 0.0 | 6.4 | 0.00 | 0.89 | 0.89 | 97 | 1006.9 |
| 20260506130035 | 15 | 93 | 1.6 | 4.8 | 0.00 | 0.89 | 0.89 | 96 | 1006.5 |
| 20260506124533 | 15 | 97 | 0.0 | 0.0 | 0.00 | 0.89 | 0.89 | 96 | 1006.5 |
| 20260506123003 | 15 | 97 | 0.0 | 0.0 | 0.03 | 0.89 | 0.89 | 96 | 1006.5 |
| 20260506121502 | 15 | 97 | 0.0 | 0.0 | 0.03 | 0.89 | 0.89 | 96 | 1006.2 |
| 20260506120031 | 14 | 97 | 0.0 | 0.0 | 0.05 | 0.89 | 0.89 | 96 | 1006.1 |
| 20260506114539 | 14 | 97 | 0.0 | 0.0 | 0.10 | 0.89 | 0.89 | 96 | 1006.0 |
| 20260506113028 | 14 | 98 | 0.0 | 0.0 | 0.10 | 0.86 | 0.86 | 96 | 1005.5 |
| 20260506111530 | 14 | 108 | 0.0 | 0.0 | 0.10 | 0.86 | 0.86 | 95 | 1005.5 |
| 20260506110029 | 14 | 108 | 0.0 | 0.0 | 0.08 | 0.84 | 0.84 | 95 | 1005.7 |
| 20260506104526 | 14 | 108 | 0.0 | 8.0 | 0.03 | 0.79 | 0.79 | 95 | 1005.6 |
| 20260506103024 | 15 | 117 | 1.6 | 6.4 | 0.03 | 0.76 | 0.76 | 95 | 1005.5 |
| 20260506101526 | 15 | 150 | 3.2 | 9.7 | 0.10 | 0.76 | 0.76 | 94 | 1005.1 |
| 20260506100022 | 15 | 106 | 1.6 | 8.0 | 0.18 | 0.76 | 0.76 | 94 | 1004.7 |
| 20260506094522 | 15 | 56 | 0.0 | 3.2 | 0.23 | 0.76 | 0.76 | 93 | 1004.2 |
| 20260506093018 | 15 | 57 | 1.6 | 6.4 | 0.20 | 0.71 | 0.71 | 93 | 1004.5 |
| 20260506091517 | 15 | 5 | 6.4 | 11.3 | 0.10 | 0.64 | 0.64 | 92 | 1004.5 |